[[{"header":{"parameterUnit":"m.s-1","parameterCategory":1,"la1":30.2991,"la2":30.254,"lo1":-89.0895,"lo2":-89.0444,"dy":0.0017,"dx":0.0017,"nx":28,"ny":28,"refTime":"2025-09-15T21:00:00:Z","depth":0,"parameterNumber":2,"parameterNumberName":"U-component_of_WINDS"},"data":[0,0,0,0,0,0,0,0,0,0,0,0,0,0,0,0,0,0,0,0,0,0,0,0,0,0,0,0,0,0,0,0,0,0,0,0,0,0,0,0,0,0,0,0,0,0,0,0,0,0,0,0,0,0,0,0,0,0,-1.0411,-1.0411,0,-1.0385,-1.0385,-1.0384,-1.0359,-1.0358,-1.0358,-1.0358,-1.0331,-1.0331,-1.033,0,0,0,0,0,0,0,0,0,0,0,0,0,-1.0441,-1.0441,-1.0411,-1.0411,-1.041,-1.0385,-1.0385,-1.0384,-1.0359,-1.0358,-1.0358,-1.0358,-1.0331,-1.0331,-1.033,0,0,0,0,0,0,0,0,0,0,0,0,0,-1.0423,-1.0441,-1.0411,-1.0395,-1.0393,-1.0385,-1.0385,-1.0384,-1.0359,-1.0358,-1.0358,-1.0358,-1.0331,-1.0331,-1.033,-1.0336,0,0,-1.0328,-1.0328,0,0,0,0,0,0,0,0,-1.0424,-1.0422,-1.0397,-1.0396,-1.0394,-1.0375,-1.0385,-1.0368,-1.0359,-1.0372,-1.0358,-1.0357,-1.0346,-1.0344,-1.034,-1.0335,-1.0334,-1.0328,-1.0328,-1.0328,-1.0327,0,0,0,0,0,0,0,-1.0425,-1.0423,-1.0401,-1.0397,-1.0395,-1.0389,-1.0386,-1.0382,-1.0362,-1.0371,-1.0369,-1.0366,-1.0345,-1.0341,-1.0339,-1.0334,-1.0328,-1.0328,-1.0327,-1.0327,-1.0336,-1.0336,0,0,0,0,0,0,-1.0429,-1.0424,-1.0402,-1.04,-1.0408,-1.0389,-1.0386,-1.0381,-1.0362,-1.0359,-1.0367,-1.0365,-1.0342,-1.034,-1.0338,-1.0346,-1.0328,-1.0327,-1.0327,-1.0335,-1.0336,-1.0336,0,0,0,0,0,0,-1.043,-1.0427,-1.0403,-1.0411,-1.0408,-1.0389,-1.0385,-1.0381,-1.0377,-1.0359,-1.0355,-1.0366,-1.0342,-1.0339,-1.0338,-1.0345,-1.0327,-1.0326,-1.0334,-1.0335,-1.0336,-1.0361,0,0,0,0,0,0,-1.0431,-1.0427,-1.0429,-1.0412,-1.0408,-1.0402,-1.0385,-1.0381,-1.0376,-1.0374,-1.0357,-1.0354,-1.0341,-1.0339,-1.0337,-1.0344,-1.0326,-1.0334,-1.0335,-1.0336,-1.0359,-1.0362,-1.0365,0,0,0,0,0,-1.0432,-1.0436,-1.0429,-1.0426,-1.0409,-1.0402,-1.04,-1.0385,-1.0377,-1.0379,-1.0368,-1.0355,-1.0345,-1.0339,-1.0337,-1.0343,-1.0333,-1.0335,-1.0336,-1.0358,-1.0362,-1.0365,0,0,0,0,0,0,-1.0453,-1.0433,-1.0425,-1.0424,-1.0415,-1.0398,-1.0399,-1.0389,-1.0382,-1.038,-1.0362,-1.0358,-1.0359,-1.0351,-1.0345,-1.035,-1.0337,-1.0338,-1.0355,-1.0358,-1.0361,-1.0363,-1.0325,0,0,0,0,0,-1.0458,-1.0454,-1.0437,-1.0438,-1.0434,-1.0418,-1.0414,-1.0404,-1.0393,-1.0389,-1.0378,-1.0369,-1.0364,-1.0361,-1.0355,-1.0359,-1.0356,-1.0362,-1.0365,-1.0368,-1.0369,-1.0372,-1.0375,-1.0341,-1.0341,-1.0341,0,0,-1.0468,-1.0456,-1.0454,-1.0442,-1.0434,-1.0431,-1.0414,-1.0411,-1.0409,-1.0389,-1.0387,-1.0379,-1.0368,-1.037,-1.037,-1.0363,-1.0378,-1.0369,-1.0372,-1.0371,-1.0374,-1.0377,-1.038,-1.0342,-1.0342,-1.0341,0,0,-1.0484,-1.0474,-1.0475,-1.0468,-1.0456,-1.0446,-1.0446,-1.0431,-1.0425,-1.0423,-1.0409,-1.0407,-1.0398,-1.0392,-1.0387,-1.0405,-1.0394,-1.0404,-1.0419,-1.0422,-1.0425,-1.0428,-1.0435,-1.0438,-1.0405,-1.0405,-1.0405,0,-1.0497,-1.0491,-1.0476,-1.0475,-1.0471,-1.0454,-1.0455,-1.0449,-1.0436,-1.0434,-1.0427,-1.0418,-1.0409,-1.041,-1.0415,-1.0411,-1.0412,-1.0405,-1.0426,-1.0428,-1.043,-1.0437,-1.044,-1.0406,-1.0406,-1.0406,-1.0406,0,-1.0509,-1.0505,-1.0508,-1.0497,-1.0493,-1.0493,-1.0479,-1.0477,-1.0468,-1.046,-1.046,-1.0449,-1.0442,-1.0442,-1.0432,-1.0443,-1.0439,-1.0429,-1.0416,-1.0435,-1.0441,-1.0444,-1.0408,-1.0408,-1.0407,-1.0407,0,0,-1.0535,-1.0518,-1.0519,-1.0515,-1.0503,-1.05,-1.0501,-1.0495,-1.0494,-1.0487,-1.0488,-1.0483,-1.0475,-1.047,-1.046,-1.0464,-1.0481,-1.0454,-1.0453,-1.046,-1.0493,-1.0501,-1.0504,-1.0474,-1.0474,-1.0475,-1.0495,0,-1.0549,-1.0548,-1.0536,-1.0539,-1.0537,-1.0523,-1.0524,-1.0517,-1.051,-1.0508,-1.05,-1.0497,-1.0486,-1.0484,-1.0487,-1.0478,-1.0487,-1.0476,-1.0475,-1.0475,-1.0478,-1.0507,-1.0514,-1.0533,-1.0497,-1.0497,-1.0498,0,-1.0564,-1.0559,-1.0562,-1.0553,-1.0551,-1.0552,-1.0547,-1.0545,-1.0539,-1.0533,-1.053,-1.0519,-1.0521,-1.051,-1.0512,-1.0505,-1.0505,-1.0501,-1.0501,-1.05,-1.0487,-1.0507,-1.0539,-1.0542,-1.0501,-1.0501,-1.0501,0,-1.0584,-1.0578,-1.058,-1.0577,-1.0565,-1.0567,-1.0562,-1.0555,-1.0553,-1.0549,-1.0548,-1.0545,-1.0542,-1.0541,-1.053,-1.0523,-1.0535,-1.0522,-1.0531,-1.0532,-1.0533,-1.0533,-1.0566,-1.0533,-1.0533,-1.0533,-1.0533,0,-1.06,-1.0603,-1.0589,-1.059,-1.0594,-1.0581,-1.0586,-1.058,-1.0574,-1.0575,-1.0563,-1.0564,-1.055,-1.055,-1.0542,-1.0547,-1.0546,-1.0543,-1.054,-1.0543,-1.0544,-1.0542,-1.054,-1.0534,-1.0534,-1.0534,-1.0534,0,-1.0622,-1.0613,-1.0614,-1.0604,-1.0602,-1.0605,-1.0597,-1.0599,-1.0592,-1.0593,-1.0593,-1.0582,-1.0582,-1.0572,-1.057,-1.0565,-1.0573,-1.0568,-1.0575,-1.0573,-1.0584,-1.0583,-1.0616,-1.062,-1.0585,-1.0585,-1.0586,0,-1.0633,-1.0635,-1.0627,-1.0627,-1.0623,-1.0622,-1.0621,-1.0611,-1.061,-1.0604,-1.0607,-1.0606,-1.0604,-1.0605,-1.0598,-1.0597,-1.0592,-1.0604,-1.0592,-1.0596,-1.0593,-1.0593,-1.0594,-1.0606,-1.0607,-1.0607,-1.0607,0,-1.0654,-1.065,-1.0649,-1.0647,-1.0646,-1.0643,-1.064,-1.0641,-1.063,-1.063,-1.063,-1.0629,-1.0628,-1.0628,-1.0626,-1.0622,-1.0613,-1.0612,-1.0614,-1.0617,-1.0621,-1.062,-1.0582,-1.061,-1.061,-1.061,-1.061,-1.0609,-1.0671,-1.0673,-1.0668,-1.0668,-1.0665,-1.0663,-1.0665,-1.066,-1.0659,-1.0658,-1.0652,-1.0654,-1.065,-1.0647,-1.0644,-1.0646,-1.064,-1.0643,-1.0644,-1.0645,-1.0647,-1.0621,-1.0646,-1.0646,-1.0646,-1.0646,-1.0646,0,-1.0692,-1.0689,-1.0689,-1.0686,-1.0686,-1.0679,-1.0676,-1.0677,-1.0679,-1.0676,-1.0676,-1.0678,-1.0679,-1.0673,-1.0673,-1.0676,-1.0672,-1.0676,-1.0676,-1.0676,-1.0652,-1.065,-1.068,-1.068,-1.068,-1.068,-1.068,-1.068,-1.0703,-1.0707,-1.0703,-1.0707,-1.0704,-1.0705,-1.0705,-1.0704,-1.0702,-1.0704,-1.0705,-1.0702,-1.0699,-1.0699,-1.07,-1.0699,-1.0699,-1.0705,-1.0702,-1.068,-1.0677,-1.0674,-1.0672,-1.0705,-1.0705,-1.0726,-1.0726,-1.0726]},{"header":{"parameterUnit":"m.s-1","parameterCategory":1,"la1":30.2991,"la2":30.254,"lo1":-89.0895,"lo2":-89.0444,"dy":0.0017,"dx":0.0017,"nx":28,"ny":28,"refTime":"2025-09-15T21:00:00:Z","depth":0,"parameterNumber":3,"parameterNumberName":"V-component_of_WINDS"},"data":[0,0,0,0,0,0,0,0,0,0,0,0,0,0,0,0,0,0,0,0,0,0,0,0,0,0,0,0,0,0,0,0,0,0,0,0,0,0,0,0,0,0,0,0,0,0,0,0,0,0,0,0,0,0,0,0,0,0,4.1074,4.1074,0,4.1063,4.1063,4.1063,4.1085,4.1085,4.1086,4.1087,4.1071,4.107,4.1069,0,0,0,0,0,0,0,0,0,0,0,0,0,4.1108,4.1107,4.1074,4.1074,4.1074,4.1063,4.1063,4.1063,4.1084,4.1085,4.1086,4.1087,4.1071,4.107,4.1069,0,0,0,0,0,0,0,0,0,0,0,0,0,4.1095,4.1107,4.1074,4.1083,4.1084,4.1063,4.1063,4.1063,4.1084,4.1085,4.1086,4.1087,4.1072,4.107,4.1068,4.1037,0,0,4.1063,4.1063,0,0,0,0,0,0,0,0,4.1095,4.1093,4.1082,4.1082,4.1083,4.1076,4.107,4.1054,4.1084,4.1084,4.1087,4.1088,4.1071,4.107,4.1065,4.1036,4.1036,4.1063,4.1062,4.1062,4.1061,0,0,0,0,0,0,0,4.1096,4.1094,4.107,4.1082,4.1082,4.1086,4.1086,4.1067,4.1072,4.1084,4.1086,4.1084,4.1072,4.1067,4.1065,4.1035,4.1063,4.1062,4.1061,4.106,4.0979,4.0978,0,0,0,0,0,0,4.1097,4.1095,4.107,4.1069,4.1092,4.1085,4.1084,4.1077,4.1072,4.1072,4.1083,4.1085,4.1069,4.1067,4.1065,4.1027,4.1062,4.106,4.1059,4.098,4.0979,4.0977,0,0,0,0,0,0,4.1097,4.1094,4.107,4.1082,4.108,4.1083,4.1075,4.1077,4.1072,4.1072,4.1072,4.1078,4.107,4.1067,4.1044,4.1027,4.1059,4.1058,4.0981,4.098,4.0978,4.0951,0,0,0,0,0,0,4.1098,4.1094,4.1083,4.1082,4.1079,4.1051,4.1075,4.1076,4.1069,4.1072,4.1066,4.1066,4.1071,4.1046,4.1042,4.1025,4.1057,4.0983,4.0981,4.0979,4.0953,4.0948,4.0944,0,0,0,0,0,4.1099,4.1075,4.1083,4.108,4.1066,4.105,4.1048,4.1055,4.1068,4.1056,4.1056,4.1066,4.103,4.1044,4.1039,4.1021,4.0984,4.0981,4.0979,4.0955,4.0949,4.0944,0,0,0,0,0,0,4.1073,4.1075,4.1084,4.1059,4.1054,4.1054,4.1039,4.1048,4.1039,4.1041,4.1049,4.1047,4.1022,4.102,4.1035,4.099,4.1009,4.1005,4.0992,4.0987,4.0982,4.0983,4.1055,0,0,0,0,0,4.1064,4.1053,4.1055,4.1033,4.103,4.1035,4.1028,4.1034,4.1029,4.1027,4.1025,4.1018,4.1005,4.0996,4.0984,4.0954,4.0952,4.0939,4.0935,4.0931,4.0927,4.091,4.0903,4.0969,4.0969,4.0969,0,0,4.1046,4.1046,4.1038,4.1028,4.1025,4.1011,4.1033,4.1018,4.1007,4.1024,4.1002,4.1001,4.0994,4.0967,4.0954,4.0964,4.0909,4.0927,4.0924,4.0922,4.0906,4.09,4.0894,4.0967,4.0967,4.0967,0,0,4.1006,4.1005,4.0986,4.0983,4.098,4.0983,4.0978,4.0977,4.0977,4.0956,4.0968,4.0955,4.0932,4.0926,4.092,4.0879,4.0887,4.0874,4.085,4.0833,4.0828,4.0823,4.0807,4.0801,4.0871,4.0871,4.0871,0,4.0983,4.0964,4.0975,4.0959,4.0953,4.097,4.095,4.0946,4.0938,4.0933,4.0944,4.0916,4.0912,4.0884,4.0874,4.0869,4.0862,4.0874,4.0828,4.0823,4.0819,4.0804,4.0798,4.0869,4.0869,4.087,4.087,0,4.0936,4.0923,4.0908,4.0901,4.0894,4.0876,4.0882,4.0874,4.0881,4.0882,4.086,4.0856,4.0844,4.0838,4.0843,4.0809,4.0815,4.0827,4.0845,4.0811,4.0796,4.0791,4.0867,4.0867,4.0868,4.0868,0,0,4.0877,4.0877,4.0871,4.0868,4.0865,4.0855,4.0837,4.0826,4.0818,4.0812,4.0796,4.0777,4.0788,4.0781,4.0787,4.0772,4.0738,4.0786,4.0786,4.0775,4.0698,4.0688,4.0681,4.0744,4.0743,4.0742,4.0698,0,4.0836,4.0807,4.0816,4.0786,4.0774,4.079,4.0774,4.077,4.0771,4.076,4.0761,4.0747,4.0763,4.0759,4.0745,4.0745,4.0722,4.0748,4.0727,4.0727,4.0727,4.0674,4.0663,4.0622,4.0693,4.0692,4.0691,0,4.0784,4.0777,4.0746,4.0746,4.0741,4.0727,4.0717,4.0707,4.0702,4.0704,4.0697,4.0705,4.0686,4.0707,4.068,4.0697,4.069,4.0688,4.0687,4.0683,4.0705,4.0667,4.0609,4.0602,4.0683,4.0683,4.0684,0,4.0742,4.0725,4.0704,4.0702,4.0701,4.069,4.0689,4.0686,4.0678,4.067,4.0665,4.0654,4.0647,4.0638,4.0642,4.0657,4.0614,4.0635,4.0613,4.0613,4.0602,4.0602,4.0539,4.06,4.06,4.06,4.06,0,4.0694,4.0674,4.0686,4.0673,4.0651,4.0661,4.0638,4.0639,4.0636,4.0622,4.0635,4.0622,4.063,4.0616,4.062,4.0596,4.0593,4.0593,4.0594,4.0591,4.059,4.0584,4.0586,4.0598,4.0599,4.0599,4.0599,0,4.0642,4.065,4.0628,4.063,4.0629,4.0613,4.0613,4.06,4.0604,4.0586,4.0582,4.0586,4.0571,4.0576,4.0559,4.0562,4.0531,4.0536,4.0533,4.0533,4.0511,4.0512,4.044,4.0431,4.0499,4.0499,4.0498,0,4.061,4.0596,4.0596,4.0589,4.0587,4.0575,4.0568,4.0578,4.057,4.0564,4.0551,4.0538,4.0527,4.0502,4.0503,4.049,4.0494,4.0469,4.0491,4.0489,4.0491,4.0491,4.0489,4.0464,4.0463,4.0463,4.0462,0,4.0552,4.0557,4.0547,4.0539,4.0531,4.0525,4.0519,4.0512,4.0521,4.0511,4.0497,4.0489,4.0473,4.0459,4.0448,4.0445,4.0454,4.0456,4.045,4.0445,4.0443,4.0442,4.0519,4.0457,4.0457,4.0458,4.0458,4.0458,4.0508,4.0496,4.0494,4.0483,4.048,4.0475,4.0463,4.0465,4.0454,4.0443,4.0449,4.0432,4.0427,4.0413,4.0409,4.0394,4.0403,4.0395,4.0392,4.039,4.0386,4.0448,4.0392,4.0393,4.0393,4.0393,4.0393,0,4.045,4.045,4.044,4.0432,4.0423,4.0436,4.043,4.0421,4.0407,4.0402,4.0392,4.0375,4.0362,4.0362,4.0349,4.0337,4.0341,4.0333,4.0333,4.0332,4.038,4.0386,4.033,4.033,4.033,4.033,4.033,4.033,4.0418,4.0397,4.0401,4.0379,4.0379,4.0363,4.0359,4.0354,4.035,4.0331,4.0321,4.0322,4.0318,4.0305,4.0293,4.0293,4.0287,4.0277,4.0278,4.0322,4.0329,4.0334,4.034,4.0276,4.0276,4.0231,4.0231,4.0231]}]]